Location: Bondula
(6.3703°N, 10.6756°W)
Time: 16:25:49
(UTC+00:00)

Cosmos 1603 - Pass Details

Date: 22 October 2019
Orbit: 829 x 861 km, 71.0° (Epoch: 20 November)

Event Time Altitude Azimuth Distance (km) Brightness Sun altitude
Rises 04:52:48 0° 186° (S) 3,363 6.9 -24.3°
Reaches altitude 10° 04:55:17 10° 181° (S) 2,429 6.2 -23.7°
Maximum altitude 05:00:42 54° 105° (ESE) 1,005 4.4 -22.4°
Drops below altitude 10° 05:06:06 10° 29° (NNE) 2,434 6.3 -21.1°
Sets 05:08:35 0° 24° (NNE) 3,371 7.0 -20.5°
